#timestamp,LO_Frequency,Hit,StdDev 
1510495215.8,286047000.1,N
1510495235.7,286047000.5,N
1510495255.5,286046998.5,N
1510495275.4,286046998.4,N
1510495295.2,286047000.9,N
1510495315.0,286046999.9,N
1510495315.9,286046999.9,N
1510495335.8,286047000.0,N
1510495355.6,286047002.8,N
1510495375.4,286047001.1,N
1510495395.3,286046999.4,N
1510495415.1,286046996.5,N
1510495435.9,286046996.6,N
1510495455.7,286046998.0,N
1510495475.5,286046997.5,N
1510495495.4,286046997.4,N
1510495515.2,286046995.0,Y
1510495535.0,286046997.3,P
1510495535.9,286046997.3,N
1510495555.8,286046997.9,N
1510495575.6,286046997.0,N
1510495595.5,286046999.6,N
1510495615.3,286046999.1,N
1510495635.1,286047000.8,N
1510495655.9,286047000.3,N
1510495675.7,286047000.3,N
1510495695.5,286047000.4,N
1510495715.4,286046998.1,N
1510495735.2,286047000.6,N
1510495755.0,286046998.2,N
1510495756.0,286046998.2,N
1510495775.8,286047000.2,N
1510495795.6,286046999.7,N
1510495815.5,286047002.5,N
1510495835.3,286047001.1,N
1510495855.1,286047000.3,N
1510495875.9,286047000.6,N
1510495895.7,286046998.8,N
1510495915.6,286046999.9,N
1510495935.4,286047001.6,N
1510495955.2,286047000.1,N
1510495975.1,286046999.9,N
1510495976.0,286046999.9,N
1510495995.8,286047000.1,N
1510496015.7,286047000.1,N
1510496035.5,286047000.2,N
1510496055.3,286047000.1,N
1510496075.2,286047000.4,N
1510496095.9,286047000.1,N
1510496115.7,286047002.5,N
1510496135.6,286047002.7,N
1510496155.4,286047002.8,N
1510496175.2,286047001.9,N
1510496195.1,286047002.1,N
1510496196.0,286047002.1,N
1510496215.8,286047002.7,N
1510496235.7,286047000.3,N
1510496255.5,286047000.4,N
1510496275.3,286046999.7,N
1510496295.2,286047000.5,N
1510496315.0,286047000.4,N
1510496315.9,286047000.4,N
1510496335.8,286047000.4,N
1510496355.6,286046999.2,N
1510496375.4,286046998.3,N
1510496395.3,286046998.3,N
1510496415.1,286047000.4,N
1510496435.8,286046998.2,N
1510496455.7,286047002.1,N
1510496475.5,286047000.2,N
1510496495.3,286047001.0,N
1510496515.2,286046999.9,N
1510496535.0,286047001.5,N
1510496535.9,286047001.5,N
1510496555.8,286047002.6,N
1510496575.6,286047002.7,N
1510496595.4,286047000.2,N
1510496615.3,286047002.4,N
1510496635.1,286047002.5,N
1510496655.9,286047001.4,N
1510496675.7,286047001.5,N
1510496695.5,286047004.3,Y
1510496715.4,286047004.3,P
1510496735.2,286047001.3,N
1510496755.0,286047002.3,N
1510496755.9,286047002.3,N
1510496775.8,286046999.8,N
1510496795.6,286046999.8,N
1510496815.5,286047001.5,N
1510496835.3,286047001.9,N
1510496855.1,286046999.7,N
1510496875.9,286047000.5,N
1510496895.7,286047000.0,N
1510496915.6,286046999.8,N
1510496935.4,286047002.3,N
1510496955.2,286047000.0,N
1510496975.1,286047002.2,N
1510496976.0,286047002.2,N
1510496995.8,286047002.4,N
1510497015.6,286046999.7,N
1510497035.5,286047002.7,N
1510497055.3,286047002.6,N
1510497075.1,286047001.9,N
1510497095.9,286047002.7,N
1510497115.7,286047002.2,N
1510497135.6,286046999.7,N
1510497155.4,286047000.8,N
1510497175.2,286046998.3,N
1510497195.1,286047001.0,N
1510497196.0,286047001.0,N
1510497215.8,286047002.1,N
1510497235.6,286047002.4,N
1510497255.5,286047002.6,N
1510497275.3,286047002.0,N
1510497295.2,286047001.3,N
1510497315.9,286047004.0,Y
1510497335.7,286047002.7,P
1510497355.6,286046999.7,N
1510497375.4,286047000.2,N
1510497395.2,286047001.1,N
1510497415.1,286046998.6,N
1510497416.0,286046998.6,N
1510497435.8,286046999.3,N
1510497455.7,286046998.7,N
1510497475.5,286046999.0,N
1510497495.3,286046998.4,N
1510497515.2,286046996.5,N
1510497535.0,286046999.3,N
1510497535.9,286046999.3,N
1510497555.8,286046998.8,N
1510497575.6,286046998.4,N
1510497595.4,286047000.7,N
1510497615.3,286046998.4,N
1510497635.1,286046998.1,N
1510497636.0,286046998.1,N
1510497655.8,286047000.9,N
1510497675.7,286047000.4,N
1510497695.5,286047002.4,N
1510497715.4,286047000.2,N
1510497735.2,286047000.0,N
1510497755.0,286047000.5,N
1510497755.9,286047000.5,N
1510497775.8,286047001.0,N
1510497795.6,286047000.3,N
1510497815.4,286047000.4,N
1510497835.3,286047001.0,N
1510497855.1,286047001.1,N
1510497875.9,286046998.9,N
1510497895.7,286046998.4,N
1510497915.5,286046999.2,N
1510497935.4,286046998.4,N
1510497955.2,286046996.6,N
1510497975.0,286046999.4,N
1510497975.9,286046999.4,N
1510497995.8,286046998.8,N
1510498015.6,286046998.8,N
1510498035.5,286046999.0,N
1510498055.3,286046999.2,N
1510498075.1,286046999.3,N
1510498095.9,286046996.5,N
1510498115.7,286047001.1,N
1510498135.5,286047001.2,N
1510498155.4,286046996.6,N
1510498175.2,286046997.3,N
1510498195.1,286046996.8,N
1510498196.0,286046996.8,N
1510498215.8,286046996.8,N
1510498235.6,286046996.7,N
1510498255.5,286046999.1,N
1510498275.3,286046996.7,N
1510498295.1,286046996.8,N
1510498315.9,286046999.4,N
1510498335.7,286046996.8,N
1510498355.6,286046998.0,N
1510498375.4,286046997.6,N
1510498395.2,286046996.7,N
1510498415.1,286046997.6,N
1510498416.0,286046997.6,N
1510498435.8,286046996.7,N
1510498455.6,286046999.1,N
1510498475.5,286046994.9,Y
1510498495.3,286046999.0,P
1510498515.2,286046999.3,N
1510498535.0,286046997.4,P
1510498535.9,286046997.4,Y
1510498555.8,286047001.2,P
1510498575.6,286047002.1,N
1510498595.4,286047000.8,N
1510498615.3,286047000.8,N
1510498635.1,286047000.9,N
1510498636.0,286047000.9,N
1510498655.8,286046998.1,N
1510498675.7,286047002.6,N
1510498695.5,286047000.3,N
1510498715.3,286047000.3,N
1510498735.2,286047000.5,N
1510498755.0,286047000.7,N
1510498755.9,286047000.7,N
1510498775.8,286046999.4,N
1510498795.6,286046999.1,N
